#timestamp,LO_Frequency,Hit,StdDev 
1549112415.9,286047002.0,N
1549112435.7,286047001.3,N
1549112455.6,286047001.7,N
1549112475.4,286047002.2,N
1549112495.2,286047001.7,N
1549112515.1,286047004.3,Y
1549112516.0,286047004.3,P
1549112535.8,286047002.5,N
1549112555.7,286047002.1,N
1549112575.5,286047002.0,N
1549112595.3,286047002.0,N
1549112615.2,286046999.8,N
1549112635.9,286046998.2,N
1549112655.7,286046999.2,N
1549112675.6,286046998.4,N
1549112695.4,286046999.1,N
1549112715.3,286046999.3,N
1549112735.1,286046999.2,N
1549112736.0,286046999.2,N
1549112755.8,286046999.4,N
1549112775.7,286046998.8,N
1549112795.5,286047000.5,N
1549112815.3,286046998.5,N
1549112835.2,286046998.5,N
1549112855.0,286046998.6,N
1549112855.9,286046998.6,N
1549112875.8,286046998.8,N
1549112895.6,286046996.5,N
1549112915.8,286046997.0,N
1549112935.6,286046999.2,N
1549112955.5,286046996.5,N
1549112975.3,286046997.3,N
1549112995.1,286046995.2,N
1549113015.9,286046994.9,N
1549113035.7,286046997.9,N
1549113055.5,286046994.9,N
1549113075.4,286046996.3,N
1549113095.2,286046994.1,Y
1549113115.1,286046995.4,P
1549113116.0,286046995.4,N
1549113135.8,286046994.0,P
1549113155.6,286046992.2,Y
1549113175.5,286046999.2,P
1549113195.3,286047000.9,N
1549113215.2,286047000.5,N
1549113235.9,286047000.9,N
1549113255.7,286047001.2,N
1549113275.6,286047000.5,N
1549113295.4,286047002.7,N
1549113315.2,286047004.3,N
1549113335.1,286047005.8,N
1549113336.0,286047005.8,N
1549113355.8,286047003.4,N
1549113375.7,286047004.4,N
1549113395.5,286047003.5,N
1549113415.3,286047005.8,N
1549113435.2,286047004.7,N
1549113455.0,286047004.7,N
1549113455.9,286047004.7,N
1549113475.8,286047005.4,N
1549113495.6,286047005.0,N
1549113515.4,286047005.5,N
1549113535.3,286047004.2,N
1549113555.1,286047002.4,N
1549113575.8,286047002.7,N
1549113595.7,286047002.5,N
1549113615.5,286047002.2,N
1549113635.4,286047002.4,N
1549113655.2,286047000.4,N
1549113675.0,286047000.5,N
1549113675.9,286047000.5,N
1549113695.8,286046998.5,N
1549113715.6,286047001.2,N
1549113735.4,286047000.6,N
1549113755.3,286047000.4,N
1549113775.1,286047000.0,N
1549113795.9,286046998.7,N
1549113815.7,286046998.9,N
1549113835.5,286046997.0,N
1549113855.4,286046999.0,N
1549113875.2,286047001.2,N
1549113895.1,286046999.7,N
1549113896.0,286046999.7,N
1549113915.8,286047001.9,N
1549113935.6,286046999.8,N
1549113955.5,286047002.6,N
1549113975.3,286047001.7,N
1549113995.1,286047004.2,N
1549114015.9,286047003.8,N
1549114035.7,286047002.5,N
1549114055.6,286047000.3,N
1549114075.4,286046998.5,N
1549114095.2,286046998.9,N
1549114115.1,286046996.5,N
1549114116.0,286046996.5,N
1549114135.8,286046997.7,N
1549114155.7,286046995.3,N
1549114175.5,286046995.8,N
1549114195.3,286046995.2,N
1549114215.2,286046999.3,N
1549114235.0,286046998.4,N
1549114235.9,286046998.4,N
1549114255.7,286046999.1,N
1549114275.6,286046998.3,N
1549114295.4,286046996.5,N
1549114315.3,286047011.9,Y
1549114335.1,286047001.1,P
1549114355.8,286047000.3,N
1549114375.7,286047000.7,N
1549114395.5,286046998.8,N
1549114415.4,286047000.9,N
1549114435.2,286046998.4,N
1549114455.0,286046998.2,N
1549114455.9,286046998.2,N
1549114475.8,286046998.1,N
1549114495.6,286047001.2,N
1549114515.5,286047000.8,N
1549114535.3,286046999.9,N
1549114555.1,286047000.6,N
1549114575.9,286046998.4,N
1549114595.7,286046998.1,N
1549114615.5,286046998.6,N
1549114635.4,286047001.2,N
1549114655.2,286047001.1,N
1549114675.1,286046999.9,N
1549114676.0,286046999.9,N
1549114695.8,286047000.2,N
1549114715.6,286047004.3,Y
1549114735.5,286047002.0,P
1549114755.3,286047002.4,N
1549114775.1,286047002.0,N
1549114795.9,286047001.7,N
1549114815.7,286047004.3,Y
1549114835.6,286047000.6,P
1549114855.4,286047002.3,P
1549114875.2,286047004.0,P
1549114895.1,286047005.4,Y
1549114915.0,286047002.0,P
1549114915.9,286047002.0,P
1549114935.8,286047000.7,P
1549114955.6,286046999.0,N
1549114975.4,286046997.4,N
1549114995.3,286046995.2,N
1549115015.1,286046994.5,N
1549115035.9,286046994.8,N
1549115055.7,286046993.1,N
1549115075.5,286046991.2,N
1549115095.4,286046992.5,N
1549115115.2,286046991.3,N
1549115135.1,286046989.0,N
1549115136.0,286046989.0,N
1549115155.8,286046989.5,N
1549115175.6,286046989.9,N
1549115195.5,286046991.3,N
1549115215.3,286046990.6,N
1549115235.2,286046991.0,N
1549115255.0,286046991.2,N
1549115255.9,286046991.2,N
1549115275.7,286046990.2,N
1549115295.6,286046988.5,N
1549115315.4,286046991.3,N
1549115335.3,286046990.9,N
1549115355.1,286046990.9,N
1549115375.8,286046989.3,N
1549115395.7,286046987.7,N
1549115415.5,286046987.4,N
1549115435.5,286046988.7,N
1549115455.3,286046990.5,N
1549115475.1,286046992.9,N
1549115495.9,286046990.6,Y
1549115515.7,286046998.3,P
1549115535.6,286046998.4,N
1549115555.4,286047011.9,P
1549115575.2,286046998.2,N
1549115595.1,286046998.5,N
1549115596.0,286046998.5,N
1549115615.8,286046998.4,N
1549115635.6,286047000.8,N
1549115655.5,286047000.9,N
1549115675.3,286046999.5,N
1549115695.2,286046998.1,N
1549115715.9,286046999.9,N
1549115735.7,286046999.9,N
1549115755.6,286046998.8,N
1549115775.4,286046998.3,N
1549115795.2,286047000.4,N
1549115815.1,286046999.9,N
1549115816.0,286046999.9,N
1549115835.8,286047002.5,N
1549115855.7,286047002.2,N
1549115875.5,286047001.9,N
1549115895.3,286047004.7,N
1549115915.2,286047009.0,N
1549115935.0,286047011.3,N
1549115935.9,286047011.3,N
1549115955.8,286047012.6,N
1549115975.6,286047013.0,N
1549115995.4,286047011.9,N
